#�ϑ�����,���ϕ���,���ϕ���,�ő啗��,�ő啗����������,�ő�u�ԕ���,�ő�u�ԕ�����������
#(�N����),(m/s)   ,(16����),(m/s)   ,(16����)        ,(m/s)       ,(16����)            
2017/9/1 9:53,2.4,8,2.4,8,2.4,8
2017/9/1 9:54,1.9,7,2.4,8,2.4,8
2017/9/1 9:55,1.7,6,1.7,8,2,5
2017/9/1 9:56,1.6,6,1.7,8,2,5
2017/9/1 9:57,1.7,6,1.7,8,2.1,6
2017/9/1 9:58,1.5,6,1.5,8,2.1,6
2017/9/1 9:59,1.6,7,1.6,8,2.7,8
2017/9/1 10:00,1.6,7,1.6,8,2.7,8
2017/9/1 10:01,1.6,7,1.7,8,2.6,8
2017/9/1 10:14,2.9,12,2.9,12,3,12
2017/9/1 10:25,3.8,8,3.8,8,4.1,9
2017/9/1 10:26,2.6,10,2.9,8,3.3,7
2017/9/1 10:27,2,10,2,8,4.1,8
2017/9/1 10:28,1.8,10,2,8,4.1,8
2017/9/1 10:40,0.1,4,0.1,4,0.1,6
2017/9/1 10:52,0.8,16,0.8,16,6.7,15
2017/9/1 10:53,0.8,14,0.9,16,6.7,15
2017/9/1 10:54,1.3,15,1.3,15,3.6,13
2017/9/1 10:56,1.6,16,1.6,16,6.2,2
2017/9/1 10:57,2.3,16,2.3,16,6.5,1
2017/9/1 10:58,2.5,16,2.5,1,8.4,2
2017/9/1 10:59,2.3,16,2.5,1,8.4,2
2017/9/1 11:00,2.6,16,2.6,1,6.9,2
2017/9/1 11:01,2.5,1,2.6,1,6.9,2
2017/9/1 11:04,2.3,3,2.3,3,2.9,3
2017/9/1 11:05,1.4,2,2.3,3,2.6,3
2017/9/1 11:06,2.8,1,2.8,1,8.9,2
2017/9/1 11:07,3,1,3,1,8.9,2
2017/9/1 11:18,12.8,16,12.8,16,13.4,16
2017/9/1 11:19,7.1,16,8.1,16,6.9,14
2017/9/1 11:20,6.8,16,7.1,16,5.7,1
2017/9/1 11:21,6.7,1,6.8,16,6.4,1
2017/9/1 11:22,6.6,1,6.6,16,6.4,16
2017/9/1 11:25,6.3,16,6.3,16,6.2,1
2017/9/1 11:26,6.8,16,6.8,16,13.1,15
2017/9/1 11:27,6.7,16,6.9,16,11.3,1
2017/9/1 11:28,6,1,6.8,16,11.1,16
2017/9/1 11:29,5.9,1,5.9,16,5.5,15
2017/9/1 11:30,5.7,1,6,16,5.4,1
2017/9/1 11:32,5.5,1,5.5,16,7.8,1
2017/9/1 11:38,3.8,12,3.8,12,3.8,12
2017/9/1 11:49,0.3,7,0.3,7,0.3,15
2017/9/1 11:50,1.8,7,1.8,7,3.3,8
2017/9/1 11:51,1.9,8,1.9,8,2.6,1
2017/9/1 11:52,1.9,8,1.9,8,2.6,1
2017/9/1 12:02,1.6,10,1.6,10,1.6,10
2017/9/1 12:03,1.8,9,1.8,9,3.1,10
2017/9/1 12:04,1.5,8,1.5,9,1.8,2
2017/9/1 12:05,2.3,6,2.3,6,9.4,2
2017/9/1 12:06,4,4,4,5,7.5,1
2017/9/1 12:07,3.9,4,4,5,7.5,1
2017/9/1 12:08,3.8,4,3.9,5,4.8,3
2017/9/1 12:09,3.4,4,3.7,5,3.9,4
2017/9/1 12:10,3.1,4,3.4,5,3.3,6
2017/9/1 12:11,2.7,5,3,5,2.5,7
2017/9/1 12:12,2.8,5,2.8,5,7,8
2017/9/1 12:13,3.1,5,3.1,5,7.4,9
2017/9/1 12:14,3.5,6,3.5,5,9.2,9
2017/9/1 12:15,3.4,7,3.6,5,8.6,10
2017/9/1 12:16,2.8,7,3.3,4,2.4,9
2017/9/1 12:17,2.7,7,2.8,4,5.2,7
2017/9/1 12:18,2.6,8,2.7,4,4.5,10
2017/9/1 12:19,2.6,9,2.6,6,3.7,9
2017/9/1 12:20,2.8,10,2.8,6,6.2,12
2017/9/1 12:21,3.1,10,3.1,6,7.5,13
2017/9/1 12:22,3.1,11,3.1,6,5.4,1
2017/9/1 12:23,2.7,11,3,6,4.1,9
2017/9/1 12:24,2.4,12,2.7,6,3.7,6
2017/9/1 12:25,2.3,10,2.4,7,3.7,6
2017/9/1 12:26,2.3,10,2.3,10,1.8,10
2017/9/1 12:27,2.3,10,2.4,10,2,10
2017/9/1 12:28,2.1,10,2.3,10,2.4,9
2017/9/1 12:29,2.2,9,2.2,10,3.3,8
2017/9/1 12:30,2,8,2.2,10,3.5,8
2017/9/1 12:31,1.8,7,1.9,10,1.9,16
2017/9/1 12:32,1.7,8,1.8,11,3.5,14
2017/9/1 12:33,1.7,8,1.7,12,2.6,6
2017/9/1 12:34,1.6,8,1.7,12,2.1,5
2017/9/1 12:35,1.4,8,1.6,10,2,9
2017/9/1 12:36,1.5,7,1.5,10,2.9,2
2017/9/1 12:37,1.6,6,1.6,10,4.2,3
2017/9/1 12:38,1.7,5,1.8,10,8.3,1
2017/9/1 12:39,1.9,5,1.9,9,11.3,3
2017/9/1 12:40,2.4,3,2.4,4,11.9,1
2017/9/1 12:41,2.4,3,2.4,4,5.1,15
2017/9/1 12:42,2.6,3,2.6,3,7.8,1
2017/9/1 12:43,2.9,2,2.9,2,8.6,2
2017/9/1 12:44,3.1,2,3.1,2,6.3,1
2017/9/1 12:45,3.2,2,3.2,2,2.9,4
2017/9/1 12:46,3.2,2,3.2,2,3,5
2017/9/1 12:47,3.3,2,3.3,2,9.1,3
2017/9/1 12:48,3.5,2,3.5,2,10.2,4
2017/9/1 12:49,3.5,2,3.6,2,7.6,3
2017/9/1 12:50,3.4,3,3.5,2,8.1,3
2017/9/1 12:51,3.7,3,3.7,3,7.6,6
2017/9/1 12:52,3.7,4,3.7,3,5.4,6
2017/9/1 12:53,3.6,4,3.7,3,7.5,8
2017/9/1 12:54,3.5,5,3.6,3,5.5,11
2017/9/1 12:55,3.8,4,3.8,4,8.1,4
2017/9/1 12:56,4.2,4,4.2,4,8.4,4
2017/9/1 12:57,4,5,4.3,4,8.2,3
2017/9/1 12:58,4.3,5,4.3,4,10.5,4
2017/9/1 12:59,4.4,5,4.4,5,7.2,6
2017/9/1 13:00,4.2,5,4.4,5,8.9,2
2017/9/1 13:01,4,5,4.2,5,6.8,16
2017/9/1 13:02,4.1,4,4.1,5,8.5,16
2017/9/1 13:03,4.1,3,4.1,5,6.3,1
2017/9/1 13:04,4.4,3,4.4,5,10.7,4
2017/9/1 13:05,4.3,3,4.3,5,7.6,14
2017/9/1 13:06,4.5,2,4.6,2,12.2,14
2017/9/1 13:07,4.5,2,4.5,2,7.6,16
2017/9/1 13:08,4.2,1,4.5,2,10.5,4
2017/9/1 13:09,4.2,1,4.2,2,8.1,3
2017/9/1 13:10,4.1,1,4.2,2,6.4,4
2017/9/1 13:11,4.2,1,4.3,2,8.3,2
2017/9/1 13:12,4,1,4.3,2,6.2,2
2017/9/1 13:13,4,1,4,2,7.1,16
2017/9/1 13:14,4.1,1,4.2,2,9.7,2
2017/9/1 13:15,4,1,4.2,2,6.8,1
2017/9/1 13:16,3.9,1,4,2,10.9,1
2017/9/1 13:17,3.9,1,3.9,2,7.4,1
2017/9/1 13:18,3.8,1,3.9,1,7.5,1
2017/9/1 13:19,3.6,1,3.8,1,4.2,16
2017/9/1 13:20,3.7,1,3.7,1,10.1,15
2017/9/1 13:21,3.7,1,3.8,1,6.3,16
2017/9/1 13:22,4.1,1,4.1,1,10.3,1
2017/9/1 13:23,4.1,1,4.3,1,10.2,1
2017/9/1 13:24,4.1,1,4.1,1,8.3,1
2017/9/1 13:25,4,1,4.1,1,7.4,1
2017/9/1 13:26,3.9,16,4,1,8.4,15
2017/9/1 13:27,4,16,4,1,7.2,15
2017/9/1 13:28,4.2,16,4.2,1,9.3,2
2017/9/1 13:29,4.3,16,4.3,1,6.3,1
2017/9/1 13:30,4.2,16,4.3,1,8.3,16
2017/9/1 13:31,4.4,1,4.4,1,7.2,2
2017/9/1 13:32,4.1,1,4.4,1,4.9,14
2017/9/1 13:33,4.2,1,4.2,1,10.1,16
2017/9/1 13:34,4.6,16,4.6,1,16.6,1
2017/9/1 13:35,5.2,16,5.2,16,14.4,16
2017/9/1 13:36,5.6,1,5.6,16,13.8,16
2017/9/1 13:37,6,1,6,1,13.4,1
2017/9/1 13:38,6.3,1,6.3,1,16.2,1
2017/9/1 13:39,6.7,16,6.7,1,11.5,15
2017/9/1 13:40,7,16,7,16,12.1,2
2017/9/1 13:41,7.1,16,7.1,16,12.5,2
2017/9/1 13:42,7.5,16,7.5,16,11,2
2017/9/1 13:43,7.7,16,7.7,16,10.9,1
2017/9/1 13:44,7.3,16,7.7,16,10.7,1
2017/9/1 13:45,7.2,16,7.2,16,12.1,15
2017/9/1 13:46,6.7,16,7.2,16,10.2,16
2017/9/1 13:47,6.8,16,6.8,16,11.1,16
2017/9/1 13:48,6.5,16,6.8,16,9,15
2017/9/1 13:49,6.2,16,6.5,16,7.2,16
2017/9/1 13:50,6,16,6.2,16,8.6,16
2017/9/1 13:51,5.8,16,5.9,16,9.7,16
2017/9/1 13:52,5.9,16,5.9,16,11.3,15
2017/9/1 13:53,5.8,16,5.9,16,9.9,16
2017/9/1 13:54,6.2,16,6.2,16,15,16
2017/9/1 13:55,6.1,16,6.2,16,15.4,16
2017/9/1 13:56,6.2,16,6.2,16,11.3,16
2017/9/1 13:57,6,16,6.2,16,13.1,16
2017/9/1 13:58,6,16,6,16,13.5,16
2017/9/1 13:59,6.2,16,6.2,16,11.1,2
2017/9/1 14:00,6.4,16,6.4,16,11.9,15
2017/9/1 14:01,6.9,16,6.9,16,14.2,15
2017/9/1 14:02,6.8,16,7,16,12.4,16
2017/9/1 14:03,6.9,16,7,16,10.8,15
2017/9/1 14:04,6.8,16,7,16,10.5,15
2017/9/1 14:05,6.6,16,6.8,16,10,16
2017/9/1 14:06,6.5,16,6.6,16,7,16
2017/9/1 14:07,6.5,16,6.6,16,10.8,1
2017/9/1 14:08,6.7,16,6.8,16,11.1,15
2017/9/1 14:09,6.5,16,6.7,16,9.5,16
2017/9/1 14:10,6.5,15,6.6,16,12.2,16
2017/9/1 14:11,6.2,15,6.6,16,10.5,16
2017/9/1 14:12,6.2,15,6.3,16,12.8,16
2017/9/1 14:13,6,16,6.3,16,8.9,14
2017/9/1 14:14,5.7,16,6,16,8.4,1
2017/9/1 14:15,5.9,16,5.9,16,10.7,16
2017/9/1 14:16,6.3,16,6.3,16,17.9,15
2017/9/1 14:17,6.3,16,6.4,16,14,1
2017/9/1 14:18,6.3,16,6.3,16,11.8,15
2017/9/1 14:19,6.6,16,6.6,16,12.7,15
2017/9/1 14:20,6.2,16,6.6,15,8.1,16
2017/9/1 14:21,6.2,16,6.2,16,10.2,15
2017/9/1 14:22,6.1,16,6.2,16,9.8,15
2017/9/1 14:23,6.2,16,6.2,16,12.4,15
2017/9/1 14:24,6.4,16,6.4,16,13,15
2017/9/1 14:25,6.2,15,6.3,16,9.4,15
2017/9/1 14:26,6.3,15,6.4,16,14.4,15
2017/9/1 14:27,6.1,15,6.4,16,12.2,16
2017/9/1 14:28,6.1,15,6.1,16,12.4,15
2017/9/1 14:29,6.2,15,6.2,16,12.2,15
2017/9/1 14:30,6.4,16,6.4,16,9,16
2017/9/1 14:31,6.2,15,6.4,16,6.8,15
2017/9/1 14:32,6.2,16,6.2,16,8.2,16
2017/9/1 14:33,6.1,16,6.3,16,7.8,1
2017/9/1 14:34,5.9,16,6,15,6.8,16
2017/9/1 14:35,5.8,16,6,15,9.4,15
2017/9/1 14:36,5.3,16,5.7,15,5.8,2
2017/9/1 14:37,5.1,16,5.2,15,6.4,16
2017/9/1 14:38,4.7,16,5.1,15,5,1
2017/9/1 14:39,4.3,16,4.7,15,8.9,16
2017/9/1 14:40,4.2,16,4.3,16,7.7,16
2017/9/1 14:41,4,16,4.3,16,6.1,1
2017/9/1 14:42,3.7,1,4,16,4.5,16
2017/9/1 14:43,3.6,16,3.8,16,8.1,15
2017/9/1 14:44,3.7,16,3.7,16,6.2,16
2017/9/1 14:45,3.6,16,3.6,16,4.8,16
2017/9/1 14:46,3.4,16,3.5,16,6.9,14
2017/9/1 14:47,3.3,16,3.4,16,6.5,16
2017/9/1 14:48,3.3,16,3.3,16,6.4,15
2017/9/1 14:49,3.1,16,3.3,16,5.4,1
2017/9/1 14:50,2.9,16,3.1,16,6.9,16
2017/9/1 14:51,3,16,3,16,6.4,4
2017/9/1 14:52,3,16,3,1,5.7,2
2017/9/1 14:53,3,1,3,16,8.1,1
2017/9/1 14:54,2.9,1,3,16,6,2
2017/9/1 14:55,3.2,1,3.2,16,9.5,15
2017/9/1 14:56,3.2,1,3.2,16,5.6,16
2017/9/1 14:57,3,1,3.2,16,2.1,15
2017/9/1 14:58,3,16,3,16,4.4,15
2017/9/1 14:59,2.8,16,3,1,2.2,16
2017/9/1 15:00,2.9,16,2.9,1,7.1,2
2017/9/1 15:01,2.9,1,3,1,5.2,2
2017/9/1 15:02,2.9,1,2.9,1,5.4,2
2017/9/1 15:03,2.7,1,2.9,1,3.2,1
2017/9/1 15:04,2.5,1,2.6,1,3.3,15
2017/9/1 15:05,2.1,1,2.5,1,2.7,15
2017/9/1 15:06,2.1,1,2.1,1,5,15
2017/9/1 15:07,2.4,1,2.4,16,7.5,2
2017/9/1 15:08,2.7,1,2.7,16,8.5,1
2017/9/1 15:09,2.8,1,2.8,1,5.4,3
2017/9/1 15:10,2.6,1,2.8,1,3.6,15
2017/9/1 15:11,2.5,1,2.5,1,3.3,1
2017/9/1 15:12,2.5,1,2.5,1,9.3,2
2017/9/1 15:13,2.6,1,2.6,1,9.1,1
2017/9/1 15:14,2.7,1,2.7,1,3.9,16
2017/9/1 15:15,2.9,1,2.9,1,5.5,16
2017/9/1 15:16,3.1,1,3.1,1,6.5,15
2017/9/1 15:17,2.9,1,3,1,6.4,15
2017/9/1 15:18,2.7,1,2.9,1,5.4,2
2017/9/1 15:19,2.7,16,2.7,1,3.2,15
2017/9/1 15:20,2.7,16,2.7,1,3.6,15
2017/9/1 15:21,2.7,16,2.8,1,3.7,15
2017/9/1 15:22,2.6,16,2.7,1,4.7,15
2017/9/1 15:23,2.5,16,2.6,1,4.1,3
2017/9/1 15:24,2.6,16,2.6,1,5.2,3
2017/9/1 15:25,2.8,16,2.8,1,13.3,14
2017/9/1 15:26,2.8,1,2.8,1,6.9,16
2017/9/1 15:27,2.7,1,2.8,1,4.5,1
2017/9/1 15:28,2.9,16,2.9,1,8.3,16
2017/9/1 15:29,3.1,16,3.1,16,6.3,14
2017/9/1 15:30,3.3,16,3.3,16,5.8,14
2017/9/1 15:31,3.5,16,3.5,16,6.3,15
2017/9/1 15:32,3.6,16,3.6,16,5.6,3
2017/9/1 15:33,3.6,16,3.6,16,4.7,5
2017/9/1 15:34,3.6,16,3.6,16,4.7,3
2017/9/1 15:35,3.2,16,3.6,16,4.1,16
2017/9/1 15:36,3,16,3.2,16,3,2
2017/9/1 15:37,2.9,1,3,16,2.9,2
2017/9/1 15:38,2.7,1,2.9,16,2.7,2
2017/9/1 15:39,2.4,1,2.6,16,3.2,16
2017/9/1 15:40,2.1,1,2.4,16,2.1,16
2017/9/1 15:41,2,2,2.1,16,3,16
2017/9/1 15:42,1.8,1,2,16,2.7,1
2017/9/1 15:43,1.8,1,1.8,16,3.1,3
2017/9/1 15:44,1.6,2,1.8,16,2.2,4
2017/9/1 15:45,1.6,2,1.6,16,2.9,7
2017/9/1 15:46,1.5,2,1.6,16,1.6,7
2017/9/1 15:47,1.6,3,1.7,1,3.5,9
2017/9/1 15:48,1.6,3,1.6,1,2.7,10
2017/9/1 15:49,1.5,5,1.6,1,3,8
2017/9/1 15:50,1.5,7,1.6,1,3.9,10
2017/9/1 15:51,1.4,8,1.5,2,2.2,10
2017/9/1 15:52,1.4,8,1.4,1,3.7,9
2017/9/1 15:53,1.4,9,1.4,1,2.2,11
2017/9/1 15:54,1.3,9,1.4,3,1.8,9
2017/9/1 15:55,1.2,9,1.3,3,1.1,7
2017/9/1 15:56,1.4,9,1.4,3,5.7,6
2017/9/1 15:57,1.3,9,1.3,3,2.2,7
2017/9/1 15:58,1.3,9,1.3,3,4.1,9
2017/9/1 15:59,1.3,9,1.3,5,5,10
2017/9/1 16:00,1.5,8,1.5,7,5.6,10
2017/9/1 16:01,1.5,8,1.5,8,3.2,7
2017/9/1 16:02,1.7,8,1.7,8,7.5,2
2017/9/1 16:03,2,7,2,7,7.7,4
2017/9/1 16:04,2.3,6,2.3,6,7.1,4
2017/9/1 16:05,2.9,6,2.9,6,9.7,5
2017/9/1 16:06,3.3,6,3.3,6,9.4,6
2017/9/1 16:07,3.5,6,3.5,6,5.1,6
2017/9/1 16:08,3.5,6,3.5,6,2.7,7
2017/9/1 16:09,3.6,6,3.6,6,4.4,6
2017/9/1 16:10,3.5,5,3.6,6,3.5,4
2017/9/1 16:11,3.5,5,3.6,6,2.7,7
2017/9/1 16:12,3.3,5,3.5,6,3,16
2017/9/1 16:13,3.2,5,3.3,6,6.2,16
2017/9/1 16:14,3,5,3.1,6,4.4,6
2017/9/1 16:15,2.6,5,3,6,6.2,4
2017/9/1 16:16,2.3,5,2.6,6,5.2,16
2017/9/1 16:17,2.1,4,2.3,6,3.2,15
2017/9/1 16:18,2.1,4,2.1,6,3.6,2
2017/9/1 16:19,2.2,3,2.2,6,7.2,1
2017/9/1 16:20,2.2,2,2.2,5,3.1,16
2017/9/1 16:21,2.2,2,2.2,5,3.6,3
2017/9/1 16:22,2.2,2,2.2,5,3,16
2017/9/1 16:23,2.2,1,2.2,5,4.7,16
2017/9/1 16:24,2.2,1,2.2,5,3.9,15
2017/9/1 16:25,2,16,2.2,5,2.9,16
2017/9/1 16:26,1.8,16,2,5,2.4,14
2017/9/1 16:27,1.8,16,1.8,3,2.7,1
2017/9/1 16:28,1.9,16,1.9,3,3.1,1
2017/9/1 16:29,1.8,16,1.9,3,4.8,14
2017/9/1 16:30,1.8,15,1.8,2,5.4,12
2017/9/1 16:31,2,15,2,2,4.7,13
2017/9/1 16:32,2.1,15,2.1,2,4.4,16
2017/9/1 16:33,2.1,15,2.1,1,3.7,16
2017/9/1 16:34,1.9,15,2.1,1,1.9,14
2017/9/1 16:35,2,15,2,15,3.8,14
2017/9/1 16:36,2.2,15,2.2,15,4.7,14
2017/9/1 16:37,2.3,15,2.3,15,4.5,16
2017/9/1 16:38,2.6,15,2.6,15,7.7,16
2017/9/1 16:39,2.9,15,2.9,15,9.2,1
2017/9/1 16:40,3,16,3.1,15,6.2,14
2017/9/1 16:41,3,16,3,15,3.7,2
2017/9/1 16:42,2.9,16,3,15,3.6,4
2017/9/1 16:43,3,16,3,15,6.1,4
2017/9/1 16:44,3.4,1,3.4,1,6.5,3
2017/9/1 16:45,3.6,1,3.6,1,6,2
2017/9/1 16:46,3.5,1,3.6,1,5,1
2017/9/1 16:47,3.4,1,3.6,1,2.6,16
2017/9/1 16:48,3,1,3.4,1,1.6,13
2017/9/1 16:49,2.5,1,3,1,1.5,11
2017/9/1 16:50,2.3,1,2.5,1,1.8,12
2017/9/1 16:51,2.2,16,2.3,1,3.2,14
2017/9/1 16:52,2.3,15,2.3,1,4.2,15
2017/9/1 16:53,2.2,15,2.3,1,5.2,16
2017/9/1 16:54,2.2,15,2.2,1,5.7,2
2017/9/1 16:55,2.2,15,2.2,1,6.4,3
2017/9/1 16:56,2.1,15,2.2,1,3.7,3
2017/9/1 16:57,2.3,15,2.3,1,4.4,1
2017/9/1 16:58,2.5,16,2.5,1,6.3,16
2017/9/1 16:59,2.9,16,2.9,16,7.6,16
2017/9/1 17:00,3.1,16,3.1,16,6.8,2
2017/9/1 17:01,3.2,1,3.2,1,4.8,3
2017/9/1 17:02,3.4,1,3.4,1,4.8,3
2017/9/1 17:03,3.3,2,3.3,1,3.1,4
2017/9/1 17:04,3,2,3.2,1,1.4,3
2017/9/1 17:05,2.6,2,2.9,1,1.3,2
2017/9/1 17:06,2.5,2,2.6,1,2.9,2
2017/9/1 17:07,2.4,2,2.5,1,3.7,1
2017/9/1 17:08,2.2,3,2.4,1,3.3,2
2017/9/1 17:09,2.1,2,2.2,1,3.8,16
2017/9/1 17:10,1.8,2,2.1,1,2.5,8
2017/9/1 17:11,1.5,2,1.8,1,2.7,7
2017/9/1 17:12,1.4,2,1.5,2,2.4,2
2017/9/1 17:13,1.3,1,1.4,2,2.7,1
2017/9/1 17:14,1.3,1,1.3,2,1.4,14
2017/9/1 17:15,1.4,16,1.4,2,1.5,14
2017/9/1 17:16,1.3,16,1.4,2,1,15
2017/9/1 17:17,1.1,15,1.3,2,0.6,14
2017/9/1 17:18,1,15,1.1,3,1.9,6
2017/9/1 17:19,1,15,1,2,2.7,6
2017/9/1 17:20,1,16,1,2,2.6,3
2017/9/1 17:21,0.9,16,0.9,2,0.9,11
2017/9/1 17:22,0.9,15,0.9,2,1.5,10
2017/9/1 17:23,0.8,13,0.9,1,1.8,9
2017/9/1 17:24,0.8,11,0.8,1,1.1,10
2017/9/1 17:25,0.8,10,0.8,16,2.7,1
2017/9/1 17:26,0.9,10,0.9,16,3.3,16
2017/9/1 17:27,1,7,1,15,1.8,2
2017/9/1 17:28,1,14,1,15,1.3,3
2017/9/1 17:29,0.8,15,1,15,0.6,15
2017/9/1 17:30,0.8,14,0.8,9,1.6,7
2017/9/1 17:31,0.9,16,0.9,9,2.6,6
2017/9/1 17:32,0.9,1,0.9,9,2,2
2017/9/1 17:33,1.1,1,1.1,1,4.7,1
2017/9/1 17:34,1.1,1,1.1,1,2.2,15
2017/9/1 17:35,1.2,1,1.2,1,2.9,16
2017/9/1 17:36,1.1,16,1.2,1,2,14
2017/9/1 17:37,1.2,16,1.2,1,1.6,12
2017/9/1 17:38,1.1,15,1.2,1,1.5,12
2017/9/1 17:39,1.2,15,1.2,1,1.8,9
2017/9/1 17:40,1.2,15,1.2,1,1.5,1
2017/9/1 17:41,1.2,14,1.2,1,4.4,11
2017/9/1 17:42,1.3,14,1.3,14,3.2,15
2017/9/1 17:43,1.2,14,1.3,14,4.4,15
2017/9/1 17:44,1.4,14,1.4,14,4.8,16
2017/9/1 17:45,1.5,14,1.5,14,6.2,15
2017/9/1 17:46,1.8,14,1.8,14,6.2,14
2017/9/1 17:47,1.9,15,1.9,14,5.4,15
2017/9/1 17:48,2.2,15,2.2,15,8.2,16
2017/9/1 17:49,2.4,15,2.4,15,4.1,15
2017/9/1 17:50,2.6,15,2.6,15,3.6,15
2017/9/1 17:51,2.7,15,2.7,15,4.2,15
2017/9/1 17:52,2.7,15,2.7,15,3.7,1
2017/9/1 17:53,2.8,15,2.8,15,3.5,16
2017/9/1 17:54,2.9,16,2.9,16,5.6,4
2017/9/1 17:55,2.7,16,2.9,16,3.5,3
2017/9/1 17:56,2.4,16,2.6,16,1.5,9
2017/9/1 17:57,2.3,15,2.3,16,2.2,12
2017/9/1 17:58,2.1,15,2.3,16,4.8,14
2017/9/1 17:59,2.2,15,2.2,16,6,14
2017/9/1 18:00,2.2,15,2.2,16,4.1,16
2017/9/1 18:01,2.2,16,2.2,16,4.9,16
2017/9/1 18:02,2.1,15,2.2,16,4.5,16
2017/9/1 18:03,2,15,2.1,16,2.6,15
2017/9/1 18:04,2.2,15,2.2,16,9.1,14
2017/9/1 18:05,2.5,15,2.5,16,6.4,15
2017/9/1 18:06,2.7,15,2.7,15,6.5,16
2017/9/1 18:07,2.9,15,2.9,15,6.2,16
2017/9/1 18:08,3,16,3,16,5.4,14
2017/9/1 18:09,3,16,3,16,4.3,14
2017/9/1 18:10,3.1,16,3.1,16,8.5,16
2017/9/1 18:11,3.3,16,3.3,16,7.6,15
2017/9/1 18:12,3.3,16,3.3,16,3.6,1
2017/9/1 18:13,3.6,15,3.6,15,5.7,15
2017/9/1 18:14,3.2,15,3.5,15,2.6,13
2017/9/1 18:15,2.9,15,3.2,15,2.7,15
2017/9/1 18:16,2.8,15,2.9,15,3.6,16
2017/9/1 18:17,2.7,15,2.8,15,5.8,16
2017/9/1 18:18,2.8,15,2.8,15,4.4,15
2017/9/1 18:19,2.6,15,2.8,15,2.5,15
2017/9/1 18:20,2.3,16,2.6,15,1.8,2
2017/9/1 18:21,2,16,2.2,15,5.2,15
2017/9/1 18:22,2.1,16,2.1,15,4.9,1
2017/9/1 18:23,2.1,16,2.1,15,4.8,1
2017/9/1 18:24,2.3,16,2.3,15,6,15
2017/9/1 18:25,2.2,16,2.3,15,2.5,14
2017/9/1 18:26,2.2,16,2.2,15,3,14
2017/9/1 18:27,2.3,16,2.3,15,6.8,16
2017/9/1 18:28,2.4,16,2.4,15,6.9,13
2017/9/1 18:29,2.5,15,2.5,15,3.5,14
2017/9/1 18:30,2.7,15,2.7,15,6.3,16
2017/9/1 18:31,2.9,15,2.9,15,5.2,16
2017/9/1 18:32,2.8,15,2.9,15,3,14
2017/9/1 18:33,2.7,15,2.8,15,3.6,15
2017/9/1 18:34,2.6,15,2.7,15,4.3,3
2017/9/1 18:35,2.9,15,2.9,15,7.5,16
2017/9/1 18:36,3,15,3,15,4.2,15
2017/9/1 18:37,3,15,3,15,8.6,15
2017/9/1 18:38,3,15,3,15,8.1,16
2017/9/1 18:39,3.1,16,3.1,16,8.2,16
2017/9/1 18:40,3,16,3.2,15,5.4,15
2017/9/1 18:41,3,16,3.1,15,5.5,16
2017/9/1 18:42,3.2,15,3.2,15,6.2,15
2017/9/1 18:43,3.5,15,3.5,15,10,15
2017/9/1 18:44,3.6,15,3.7,15,8.2,14
2017/9/1 18:45,3.5,15,3.7,15,5.6,15
2017/9/1 18:46,3.6,15,3.6,15,5.2,14
2017/9/1 18:47,3.6,15,3.7,15,5.1,15
2017/9/1 18:48,3.3,15,3.6,15,3,15
2017/9/1 18:49,3.1,15,3.3,15,3.2,16
2017/9/1 18:50,3.1,15,3.2,15,4.7,16
2017/9/1 18:51,3.1,15,3.1,15,4.5,1
2017/9/1 18:52,3,16,3.1,15,3.7,15
2017/9/1 18:53,2.7,16,3,15,2.7,14
2017/9/1 18:54,2.5,15,2.6,15,3.2,14
2017/9/1 18:55,2.5,15,2.5,15,3.8,13
2017/9/1 18:56,2.4,15,2.4,15,4.1,13
2017/9/1 18:57,2.2,15,2.4,15,2.9,14
2017/9/1 18:58,2.2,15,2.2,15,1.8,15
2017/9/1 18:59,2.1,14,2.2,15,3,14
2017/9/1 19:00,2.1,14,2.1,15,3.3,13
2017/9/1 19:01,1.9,14,2.1,15,3.9,15
2017/9/1 19:02,1.8,14,1.9,16,1.5,2
2017/9/1 19:03,1.8,14,1.8,16,2.5,1
2017/9/1 19:04,1.7,14,1.8,15,2.5,1
2017/9/1 19:05,1.5,15,1.6,15,2.4,2
2017/9/1 19:06,1.3,15,1.5,15,1.4,1
2017/9/1 19:07,1.3,16,1.3,15,3.9,15
2017/9/1 19:08,1.6,15,1.6,15,5.2,15
2017/9/1 19:09,1.7,15,1.7,14,4.4,14
2017/9/1 19:10,1.6,15,1.7,14,2.2,11
2017/9/1 19:11,1.6,15,1.6,14,2.2,9
2017/9/1 19:12,1.6,15,1.6,14,2.1,9
2017/9/1 19:13,1.7,14,1.7,14,3.2,14
2017/9/1 19:14,1.8,14,1.8,14,6.5,16
2017/9/1 19:15,2.3,14,2.3,14,10.3,16
2017/9/1 19:16,3,14,3,14,10.5,15
2017/9/1 19:17,3.3,14,3.3,14,8.5,15
2017/9/1 19:18,3.3,14,3.3,14,8.7,16
2017/9/1 19:19,3.5,14,3.5,14,8.9,16
2017/9/1 19:20,3.7,15,3.7,15,8.6,15
2017/9/1 19:21,3.9,15,3.9,15,6.2,16
2017/9/1 19:22,4.3,15,4.3,15,6.7,15
2017/9/1 19:23,4.6,15,4.6,15,8.6,15
2017/9/1 19:24,4.7,15,4.8,15,5.8,16
2017/9/1 19:25,4.4,16,4.7,15,5,1
2017/9/1 19:26,3.8,16,4.4,15,3.6,2
2017/9/1 19:27,3.3,16,3.8,15,1.4,8
2017/9/1 19:28,3.2,16,3.3,15,3.5,13
2017/9/1 19:29,2.8,16,3.1,15,2,12
2017/9/1 19:30,2.7,16,2.8,15,2.6,2
2017/9/1 19:31,2.5,16,2.7,15,2.9,3
2017/9/1 19:32,2.1,1,2.5,15,2,6
2017/9/1 19:33,1.7,2,2.1,15,1.4,11
2017/9/1 19:34,1.4,2,1.6,15,2.1,11
2017/9/1 19:35,1.3,1,1.4,16,3.8,15
2017/9/1 19:36,1.4,16,1.4,16,4.5,14
2017/9/1 19:37,1.7,16,1.7,16,4.8,15
2017/9/1 19:38,2,16,2,16,6.4,15
2017/9/1 19:39,2.3,16,2.3,16,7.8,15
2017/9/1 19:40,2.3,16,2.3,16,3.2,16
2017/9/1 19:41,2.5,15,2.5,16,7.5,16
2017/9/1 19:42,2.8,15,2.8,15,5.2,16
2017/9/1 19:43,3,15,3,15,5.6,15
2017/9/1 19:44,3.2,15,3.2,15,6.4,15
2017/9/1 19:45,3.3,15,3.3,15,5.5,15
2017/9/1 19:46,3.5,15,3.5,15,7.4,14
2017/9/1 19:47,3.5,15,3.5,15,5.8,15
2017/9/1 19:48,3.4,15,3.6,15,6.7,16
2017/9/1 19:49,3.5,14,3.5,15,6.3,14
2017/9/1 19:50,3.4,14,3.5,15,4.1,16
2017/9/1 19:51,3.3,14,3.4,15,6.2,15
2017/9/1 19:52,3.5,14,3.5,15,7.1,15
2017/9/1 19:53,3.5,15,3.6,15,6.2,1
2017/9/1 19:54,3.3,15,3.5,15,2.1,16
2017/9/1 19:55,3.2,15,3.3,15,4.5,14
2017/9/1 19:56,2.9,15,3.2,15,3.2,14
2017/9/1 19:57,2.7,15,2.9,15,3.3,14
2017/9/1 19:58,2.6,15,2.7,15,3.5,15
2017/9/1 19:59,2.4,15,2.6,15,6.2,16
2017/9/1 20:00,2.7,15,2.7,15,7.8,14
2017/9/1 20:01,2.7,15,2.7,15,4.9,15
2017/9/1 20:02,2.4,15,2.6,15,4.4,15
2017/9/1 20:03,2.3,15,2.4,15,3.8,14
2017/9/1 20:04,2.5,15,2.5,15,4.3,14
2017/9/1 20:05,2.5,15,2.5,15,4.2,15
2017/9/1 20:06,2.4,15,2.5,15,1.5,16
2017/9/1 20:07,2.4,15,2.4,15,3.1,10
2017/9/1 20:08,2.4,15,2.4,15,5.5,1
2017/9/1 20:09,2.4,15,2.5,15,5.7,16
2017/9/1 20:10,2.4,15,2.4,15,9.5,16
2017/9/1 20:11,2.5,15,2.5,15,6.4,16
2017/9/1 20:12,2.6,15,2.6,15,5.4,16
2017/9/1 20:13,2.8,16,2.8,16,6.5,1
2017/9/1 20:14,3,16,3,16,7.6,3
2017/9/1 20:15,3.1,16,3.1,16,6.3,2
2017/9/1 20:16,3.3,1,3.3,1,3.9,3
2017/9/1 20:17,3.3,1,3.4,1,2.6,4
2017/9/1 20:18,3.1,1,3.3,1,2,14
2017/9/1 20:19,3,1,3.1,1,2.4,11
2017/9/1 20:20,2.7,1,2.9,1,3.3,12
2017/9/1 20:21,2.5,1,2.7,1,2.6,13
2017/9/1 20:22,2.2,1,2.4,1,1.8,11
2017/9/1 20:23,2,15,2.2,1,2,12
2017/9/1 20:24,1.6,14,1.9,1,1.8,11
2017/9/1 20:25,1.4,14,1.5,1,4.4,16
2017/9/1 20:26,1.4,14,1.4,1,4.2,15
2017/9/1 20:27,1.4,14,1.4,1,2.9,14
2017/9/1 20:28,1.6,14,1.6,1,3.1,16
2017/9/1 20:29,1.7,14,1.7,1,3.7,15
2017/9/1 20:30,1.6,14,1.8,1,2.4,15
2017/9/1 20:31,1.5,14,1.6,1,1.6,12
2017/9/1 20:32,1.7,14,1.7,16,2.2,14
2017/9/1 20:33,1.7,15,1.7,15,2.2,13
2017/9/1 20:34,1.8,14,1.8,14,3.5,15
2017/9/1 20:35,1.8,14,1.8,14,3.7,15
2017/9/1 20:36,1.7,14,1.8,14,3.5,15
2017/9/1 20:37,1.6,14,1.7,14,2,13
2017/9/1 20:38,1.6,14,1.6,14,2.5,4
2017/9/1 20:39,1.5,14,1.6,14,3.6,5
2017/9/1 20:40,1.7,15,1.7,14,3.9,4
2017/9/1 20:41,1.9,15,1.9,15,4.9,15
2017/9/1 20:42,2.1,16,2.1,16,6.4,14
2017/9/1 20:43,2.4,15,2.4,15,5.2,13
2017/9/1 20:44,2.5,16,2.5,16,5.2,13
2017/9/1 20:45,2.4,16,2.5,16,3.1,15
2017/9/1 20:46,2.4,16,2.4,16,2.9,1
2017/9/1 20:47,2.4,16,2.4,16,1.8,9
2017/9/1 20:48,2.4,16,2.4,16,3,9
2017/9/1 20:49,2.3,15,2.4,16,2,8
2017/9/1 20:50,2.2,15,2.3,16,2.9,6
2017/9/1 20:51,2.1,15,2.2,16,3.3,6
2017/9/1 20:52,1.8,4,2.1,16,3.2,6
2017/9/1 20:53,1.6,5,1.8,16,3.7,6
2017/9/1 20:54,1.4,5,1.6,16,2.4,9
2017/9/1 20:55,1.4,5,1.4,16,1.6,2
2017/9/1 20:56,1.3,6,1.4,16,2.4,14
2017/9/1 20:57,1.4,5,1.4,16,2.2,15
2017/9/1 20:58,1.4,4,1.4,16,2.1,1
2017/9/1 20:59,1.4,3,1.4,15,2.2,2
2017/9/1 21:00,1.5,2,1.5,15,4.3,1
2017/9/1 21:01,1.7,2,1.7,15,4.9,5
2017/9/1 21:02,1.9,2,1.9,2,5.8,4
2017/9/1 21:03,2,1,2,2,9.4,2
2017/9/1 21:04,2.2,1,2.2,1,4.2,2
2017/9/1 21:05,2.2,1,2.2,1,3.3,15
2017/9/1 21:06,2.2,1,2.2,1,3.5,1
2017/9/1 21:07,2.3,1,2.3,1,3.5,2
2017/9/1 21:08,2.3,1,2.3,1,2,12
2017/9/1 21:09,2.2,2,2.3,1,2.5,16
2017/9/1 21:10,2.3,2,2.3,1,6,3
2017/9/1 21:11,2.3,1,2.3,1,5.6,3
2017/9/1 21:12,2.1,16,2.2,1,2.6,15
2017/9/1 21:13,1.9,16,2.1,1,3.2,12
2017/9/1 21:14,1.9,15,1.9,1,2.4,11
2017/9/1 21:15,1.9,15,1.9,1,3.6,13
2017/9/1 21:16,1.9,15,2,1,3.2,16
2017/9/1 21:17,1.8,15,1.9,1,1.6,3
2017/9/1 21:18,1.8,16,1.8,1,1.8,4
2017/9/1 21:19,1.7,16,1.8,2,1,3
2017/9/1 21:20,1.4,15,1.7,2,0.8,3
2017/9/1 21:21,1.2,15,1.4,1,1.4,15
2017/9/1 21:22,1.1,16,1.2,16,1,1
2017/9/1 21:23,0.9,16,1.1,14,0.6,1
2017/9/1 21:24,0.8,1,0.9,14,1.5,9
2017/9/1 21:25,0.6,2,0.8,14,1.1,7
2017/9/1 21:26,0.6,2,0.6,15,1,2
2017/9/1 21:27,0.6,2,0.6,15,0.9,2
2017/9/1 21:28,0.5,2,0.5,16,0.9,3
2017/9/1 21:29,0.5,3,0.5,16,0.9,10
2017/9/1 21:30,0.4,3,0.5,15,0.3,8
2017/9/1 21:31,0.4,2,0.4,15,1.3,13
2017/9/1 21:32,0.4,3,0.4,16,0.8,12
2017/9/1 21:33,0.5,2,0.5,16,1.6,13
2017/9/1 21:34,0.5,14,0.5,1,1.8,9
2017/9/1 21:35,0.6,12,0.6,2,2,9
2017/9/1 21:36,0.8,11,0.8,11,4.3,12
2017/9/1 21:37,1,11,1,11,3.8,12
2017/9/1 21:38,1.3,11,1.3,11,3.3,13
2017/9/1 21:39,1.5,12,1.5,12,3,13
2017/9/1 21:40,1.7,12,1.7,12,3,14
2017/9/1 21:41,1.8,12,1.8,12,2.7,12
2017/9/1 21:42,1.8,12,1.8,12,1.5,15
2017/9/1 21:43,1.8,12,1.8,12,1.9,15
2017/9/1 21:44,1.8,13,1.8,12,1.5,14
2017/9/1 21:45,1.8,13,1.8,12,2.1,15
2017/9/1 21:46,1.7,13,1.8,12,2.1,14
2017/9/1 21:47,1.5,14,1.6,12,1.8,14
2017/9/1 21:48,1.3,14,1.5,12,2.1,15
2017/9/1 21:49,1.1,14,1.3,12,0.6,14
2017/9/1 21:50,1,14,1.1,12,1.5,11
2017/9/1 21:51,0.9,14,1,12,1.1,15
2017/9/1 21:52,0.9,14,0.9,12,1.5,15
2017/9/1 21:53,0.9,13,0.9,12,1.4,10
2017/9/1 21:54,0.9,13,0.9,13,2,12
2017/9/1 21:55,1,12,1,13,3.5,12
2017/9/1 21:56,1,12,1,14,3.1,12
2017/9/1 21:57,1,12,1,14,2.4,11
2017/9/1 21:58,1,12,1,14,1.3,15
2017/9/1 21:59,1,12,1,14,1.5,16
2017/9/1 22:00,1,13,1,14,2.1,1
2017/9/1 22:01,1.1,13,1.1,13,1.6,16
2017/9/1 22:02,1.1,13,1.1,13,1.3,15
2017/9/1 22:03,1.1,14,1.1,13,1,13
2017/9/1 22:04,1.1,14,1.1,13,1.8,12
2017/9/1 22:05,1,14,1.1,13,1.5,12
2017/9/1 22:06,1.1,14,1.1,13,3.6,11
2017/9/1 22:07,1.1,14,1.1,13,2.6,11
2017/9/1 22:08,1.1,14,1.1,13,1.8,14
2017/9/1 22:09,1.2,14,1.2,14,2.4,15
2017/9/1 22:10,1.3,13,1.3,14,2.7,14
2017/9/1 22:11,1.4,13,1.4,13,2.1,13
2017/9/1 22:12,1.5,13,1.5,13,2.6,12
2017/9/1 22:13,1.5,13,1.5,13,2.4,12
2017/9/1 22:14,1.6,13,1.6,13,1.9,13
2017/9/1 22:15,1.6,13,1.6,13,2.7,14
2017/9/1 22:16,1.6,14,1.6,13,3.2,14
2017/9/1 22:17,1.5,14,1.6,13,2.7,16
2017/9/1 22:18,1.6,14,1.6,13,3.6,12
2017/9/1 22:19,1.7,14,1.7,14,4.2,14
2017/9/1 22:20,1.7,14,1.7,14,4.5,16
2017/9/1 22:21,1.8,14,1.8,14,3.2,16
2017/9/1 22:22,1.8,15,1.8,14,3.2,16
2017/9/1 22:23,1.8,15,1.8,14,2.4,16
2017/9/1 22:24,1.8,15,1.9,15,2.2,16
2017/9/1 22:25,1.8,15,1.9,15,2.5,16
2017/9/1 22:26,1.8,15,1.8,15,2.5,11
2017/9/1 22:27,2,15,2,15,3.3,13
2017/9/1 22:28,2,15,2,15,3.5,14
2017/9/1 22:29,2,15,2,15,3,13
2017/9/1 22:30,2,15,2,15,3.5,15